Rbgn^[z[y[W
メイン
   新天体発見情報
     Comet C/2022 T1 (Lemmon)
投稿するにはまず登録を

フラット表示 前のトピック | 次のトピック
投稿者 スレッド
佐藤裕久
投稿日時: 2023-2-26 21:40
モデレータ
登録日: 2005-6-12
居住地: 日本
投稿: 2608
オンライン
Comet C/2022 T1 (Lemmon)

2022年10月3日、Mt Lemmonサーベイの1.5-m 反射望遠鏡で発見された小惑星状天体が
MPEC 2022-W160でA/2022 T1と符号がつけられていたが、R. Weryk (西オンタリオ大学,
物理および天文学科)の報告によると、2023年1月18.5日UT、HaleakalaにあるPan-STARRS2
の1.8-m Ritchey-Chretien 反射望遠鏡で得た画像から明らかに彗星であることがわかった。
Werykによれば、4枚の45-秒WバンドPan-STARRS2サーベイ画像は、1".2のシーイングで
1".9(半値全幅:FWHM)の非常に集光した頭部が見え、p.a. 300-360°にわたる4"の広い
尾がある。

発見位置は次のとおり、

     2022 UT             R.A. (2000) Decl.       Mag.
     Oct.  3.49719    8 37 42.61   - 1 21 23.9   21.2
           3.50140    8 37 42.77   - 1 21 25.5   20.6
           3.50561    8 37 42.87   - 1 21 26.6   20.6
           3.50982    8 37 43.01   - 1 21 28.4   21.1

MPCの楕円軌道要素、位置推算表は次のとおり、

Orbital elements:
    C/2022 T1 (Lemmon)                                                          
Epoch 2023 Feb. 25.0 TT = JDT 2460000.5                                         
T 2024 Feb. 17.60786 TT                                 Rudenko                 
q   3.4443912            (2000.0)            P               Q                  
z  +0.0002000      Peri.  324.33466     -0.89464138     +0.31052123             
 +/-0.0000328      Node   236.92135     -0.26601444     -0.94787550             
e   0.9993113      Incl.   22.54281     -0.35896115     -0.07147449             
From 98 observations 2022 Oct. 3-2023 Feb. 1, mean residual 0".6.               
                                                                                
Ephemeris:
Date    TT    R. A. (2000) Decl.     Delta      r    Elong.  Phase   m1
2023 01 10    08 52 23.3 -09 58 56   4.1784  4.9826   141.2     7.1  19.1
...
2023 01 25    08 45 56.8 -10 20 02   4.0140  4.8923   150.1     5.7  18.9
...
2023 02 02    08 42 07.0 -10 19 36   3.9507  4.8447   152.3     5.4  18.8
...
2023 02 08    08 39 13.4 -10 14 03   3.9147  4.8091   152.2     5.5  18.8
2023 02 09    08 38 44.7 -10 12 42   3.9096  4.8032   152.0     5.5  18.8
2023 02 10    08 38 16.3 -10 11 14   3.9048  4.7973   151.8     5.6  18.8
...
2023 02 16    08 35 29.9 -10 00 03   3.8819  4.7620   149.9     6.0  18.7
...
2023 02 24    08 32 07.0 -09 39 19   3.8661  4.7153   145.5     6.8  18.7
...
2023 03 11    08 27 21.4 -08 46 45   3.8784  4.6288   134.5     8.8  18.6

(MPEC 2023-C52、CBET 5218)

フラット表示 前のトピック | 次のトピック

題名 投稿者 日時
 » Comet C/2022 T1 (Lemmon) 佐藤裕久 2023-2-26 21:40

投稿するにはまず登録を
 
© 1999 Tsutomu Seki.